When you browse on this site, cookies collect data to enhance your experience and personalize the content and advertising you see.
Visit our Privacy Policy to learn more. By continuing to use the site, you agree to this use of cookies and data.
  • En Estados Unidos
  • Lista de países
  • Para 7 días
  • Temperatura del agua
  • Mapa Satelital
  • El tiempo en el mapa
  • Informadores
  • user-avatar
    Iniciar sesión

    Tiempo cada hora Korçe

    Hoy, 11 Diciembre, Martes

    Tiempo Temperatura Precipitaciones Viento Presión Humedad
    00:00 +1°C° 0 mm 1 mps 661 mmHg 84%
    01:00 0°C° 0 mm 1 mps 662 mmHg 84%
    02:00 0°C° 0 mm 1 mps 662 mmHg 84%
    03:00 0°C° 0 mm 1 mps 662 mmHg 84%
    04:00 0°C° 0 mm 1 mps 662 mmHg 85%
    05:00 0°C° 0 mm 1 mps 662 mmHg 85%
    06:00 0°C° 0 mm 1 mps 662 mmHg 85%
    07:00 -1°C° 0 mm 1 mps 662 mmHg 85%
    08:00 +1°C° 0 mm 1 mps 662 mmHg 79%
    09:00 +2°C° 0 mm 1 mps 663 mmHg 73%
    10:00 +3°C° 0 mm 1 mps 664 mmHg 66%
    11:00 +3°C° 0 mm 1 mps 664 mmHg 62%
    12:00 +4°C° 0 mm 1 mps 664 mmHg 58%
    13:00 +3°C° 0 mm 2 mps 664 mmHg 53%
    14:00 +2°C° 0 mm 2 mps 664 mmHg 57%
    15:00 +2°C° 0 mm 2 mps 663 mmHg 62%
    16:00 +1°C° 0 mm 2 mps 663 mmHg 66%
    17:00 +1°C° 0 mm 1 mps 663 mmHg 70%
    18:00 0°C° 0 mm 1 mps 664 mmHg 73%
    19:00 -1°C° 0 mm 1 mps 664 mmHg 77%
    20:00 -1°C° 0 mm 1 mps 664 mmHg 77%
    21:00 -1°C° 0 mm 1 mps 664 mmHg 78%
    22:00 -2°C° 0 mm 1 mps 664 mmHg 79%
    23:00 -2°C° 0 mm 1 mps 664 mmHg 77%

    Mañana, 12 Diciembre, Miércoles

    Tiempo Temperatura Precipitaciones Viento Presión Humedad
    00:00 -2°C° 0 mm 1 mps 664 mmHg 74%
    01:00 -2°C° 0 mm 1 mps 665 mmHg 72%
    02:00 -2°C° 0 mm 1 mps 665 mmHg 70%
    03:00 -2°C° 0 mm 1 mps 665 mmHg 67%
    04:00 -2°C° 0 mm 1 mps 665 mmHg 64%
    05:00 -2°C° 0 mm 1 mps 665 mmHg 62%
    06:00 -2°C° 0 mm 1 mps 665 mmHg 61%
    07:00 -2°C° 0 mm 1 mps 665 mmHg 59%
    08:00 -1°C° 0 mm 1 mps 666 mmHg 52%
    09:00 0°C° 0 mm 1 mps 667 mmHg 45%
    10:00 +2°C° 0 mm 1 mps 667 mmHg 37%
    11:00 +2°C° 0 mm 1 mps 667 mmHg 35%
    12:00 +3°C° 0 mm 1 mps 667 mmHg 32%
    13:00 +2°C° 0 mm 2 mps 667 mmHg 29%
    14:00 +2°C° 0 mm 1 mps 666 mmHg 33%
    15:00 +1°C° 0 mm 1 mps 666 mmHg 38%
    16:00 0°C° 0 mm 1 mps 666 mmHg 42%
    17:00 -1°C° 0 mm 1 mps 666 mmHg 42%
    18:00 -1°C° 0 mm 1 mps 666 mmHg 43%
    19:00 -2°C° 0 mm 1 mps 666 mmHg 43%
    20:00 -2°C° 0 mm 1 mps 666 mmHg 42%
    21:00 -1°C° 0 mm 1 mps 666 mmHg 41%
    22:00 -1°C° 0 mm 1 mps 666 mmHg 40%
    23:00 -3°C° 0 mm 2 mps 666 mmHg 40%

    Pasado mañana, 13 Diciembre, Jueves

    Tiempo Temperatura Precipitaciones Viento Presión Humedad
    00:00 -3°C° 0 mm 2 mps 666 mmHg 39%
    01:00 -3°C° 0 mm 2 mps 666 mmHg 38%
    02:00 -3°C° 0.1 mm 2 mps 665 mmHg 40%
    03:00 -2°C° 0.1 mm 2 mps 665 mmHg 42%
    04:00 -2°C° 0.1 mm 2 mps 665 mmHg 44%
    05:00 -3°C° 0.4 mm 2 mps 664 mmHg 55%
    06:00 -3°C° 0.4 mm 2 mps 664 mmHg 67%
    07:00 -4°C° 0.4 mm 3 mps 664 mmHg 78%
    08:00 -4°C° 0.5 mm 3 mps 663 mmHg 79%
    09:00 -2°C° 0.5 mm 3 mps 663 mmHg 79%
    10:00 -2°C° 0.5 mm 3 mps 663 mmHg 80%
    11:00 -2°C° 0.6 mm 3 mps 663 mmHg 81%
    12:00 -1°C° 0.6 mm 3 mps 662 mmHg 82%
    13:00 -1°C° 0.6 mm 3 mps 662 mmHg 83%
    14:00 -1°C° 0.7 mm 2 mps 662 mmHg 85%
    15:00 -2°C° 0.7 mm 2 mps 662 mmHg 87%
    16:00 -2°C° 0.7 mm 2 mps 662 mmHg 89%
    17:00 -2°C° 0.1 mm 2 mps 662 mmHg 89%
    18:00 -2°C° 0.1 mm 2 mps 662 mmHg 89%
    19:00 -2°C° 0.1 mm 2 mps 662 mmHg 89%
    20:00 -2°C° 0.1 mm 2 mps 662 mmHg 90%
    21:00 +1°C° 0.1 mm 1 mps 663 mmHg 90%
    22:00 +1°C° 0.1 mm 1 mps 663 mmHg 91%
    23:00 +1°C° 0 mm 1 mps 663 mmHg 91%

    14 Diciembre, Viernes

    Tiempo Temperatura Precipitaciones Viento Presión Humedad
    00:00 +2°C° 0 mm 1 mps 663 mmHg 92%
    01:00 +2°C° 0 mm 1 mps 664 mmHg 93%
    02:00 +2°C° 0 mm 1 mps 664 mmHg 93%
    03:00 +2°C° 0 mm 1 mps 664 mmHg 93%
    04:00 +2°C° 0 mm 1 mps 664 mmHg 93%
    05:00 +1°C° 0 mm 1 mps 664 mmHg 92%
    06:00 +1°C° 0 mm 1 mps 665 mmHg 92%
    07:00 +1°C° 0 mm 1 mps 665 mmHg 91%
    08:00 +2°C° 0 mm 1 mps 666 mmHg 90%
    09:00 +3°C° 0 mm 1 mps 666 mmHg 88%
    10:00 +4°C° 0 mm 1 mps 667 mmHg 87%
    11:00 +5°C° 0 mm 1 mps 667 mmHg 85%
    12:00 +6°C° 0 mm 1 mps 667 mmHg 84%
    13:00 +6°C° 0 mm 1 mps 667 mmHg 83%
    14:00 +6°C° 0 mm 1 mps 667 mmHg 84%
    15:00 +5°C° 0 mm 1 mps 667 mmHg 86%
    16:00 +4°C° 0 mm 1 mps 667 mmHg 88%
    17:00 +3°C° 0 mm 2 mps 667 mmHg 88%
    18:00 +2°C° 0 mm 2 mps 667 mmHg 89%
    19:00 +1°C° 0 mm 2 mps 667 mmHg 89%
    20:00 +1°C° 0 mm 2 mps 667 mmHg 89%
    21:00 +1°C° 0 mm 2 mps 668 mmHg 89%
    22:00 +1°C° 0 mm 2 mps 668 mmHg 89%
    23:00 +1°C° 0 mm 2 mps 668 mmHg 89%

    15 Diciembre, Sábado

    Tiempo Temperatura Precipitaciones Viento Presión Humedad
    00:00 +1°C° 0 mm 2 mps 668 mmHg 89%
    01:00 +1°C° 0 mm 2 mps 668 mmHg 89%
    02:00 +1°C° 0 mm 2 mps 668 mmHg 89%
    03:00 +1°C° 0 mm 2 mps 668 mmHg 90%
    04:00 +1°C° 0 mm 2 mps 668 mmHg 90%
    05:00 +1°C° 0.1 mm 2 mps 668 mmHg 90%
    06:00 +1°C° 0.1 mm 2 mps 668 mmHg 89%
    07:00 +1°C° 0.1 mm 2 mps 668 mmHg 89%
    08:00 +2°C° 0 mm 2 mps 668 mmHg 88%
    09:00 +3°C° 0 mm 2 mps 669 mmHg 87%
    10:00 +4°C° 0 mm 2 mps 669 mmHg 85%
    11:00 +4°C° 0.1 mm 2 mps 669 mmHg 85%
    12:00 +5°C° 0.1 mm 2 mps 669 mmHg 85%
    13:00 +5°C° 0.1 mm 2 mps 669 mmHg 85%
    14:00 +4°C° 0.3 mm 2 mps 668 mmHg 87%
    15:00 +4°C° 0.3 mm 2 mps 668 mmHg 88%
    16:00 +3°C° 0.3 mm 2 mps 668 mmHg 90%
    17:00 +3°C° 0.1 mm 2 mps 668 mmHg 90%
    18:00 +3°C° 0.1 mm 2 mps 668 mmHg 90%
    19:00 +3°C° 0.1 mm 2 mps 668 mmHg 90%
    20:00 +3°C° 0.1 mm 2 mps 668 mmHg 90%
    21:00 +3°C° 0.1 mm 2 mps 668 mmHg 90%
    22:00 +2°C° 0.1 mm 2 mps 668 mmHg 90%
    23:00 +2°C° 0.2 mm 2 mps 668 mmHg 90%

    16 Diciembre, Domingo

    Tiempo Temperatura Precipitaciones Viento Presión Humedad
    00:00 +2°C° 0.2 mm 2 mps 668 mmHg 90%
    01:00 +2°C° 0.2 mm 2 mps 668 mmHg 90%
    02:00 +2°C° 0.1 mm 2 mps 668 mmHg 90%
    03:00 +2°C° 0.1 mm 2 mps 667 mmHg 90%
    04:00 +2°C° 0.1 mm 2 mps 667 mmHg 90%
    05:00 +2°C° 0.1 mm 2 mps 667 mmHg 90%
    06:00 +2°C° 0.1 mm 2 mps 667 mmHg 90%
    07:00 +2°C° 0.1 mm 2 mps 668 mmHg 90%
    08:00 +2°C° 1 mm 2 mps 668 mmHg 90%
    09:00 +4°C° 1 mm 1 mps 668 mmHg 90%
    10:00 +4°C° 1 mm 1 mps 668 mmHg 90%
    11:00 +4°C° 1.3 mm 1 mps 668 mmHg 90%
    12:00 +4°C° 1.3 mm 1 mps 668 mmHg 91%
    13:00 +4°C° 1.3 mm 1 mps 668 mmHg 91%
    14:00 +4°C° 0.3 mm 1 mps 668 mmHg 92%
    15:00 +4°C° 0.3 mm 1 mps 668 mmHg 92%
    16:00 +4°C° 0.3 mm 1 mps 668 mmHg 93%
    17:00 +3°C° 0 mm 1 mps 668 mmHg 93%
    18:00 +3°C° 0 mm 1 mps 668 mmHg 94%
    19:00 +2°C° 0 mm 1 mps 669 mmHg 95%
    20:00 +2°C° 0 mm 1 mps 669 mmHg 94%
    21:00 +2°C° 0 mm 1 mps 669 mmHg 94%
    22:00 +2°C° 0 mm 1 mps 669 mmHg 93%
    23:00 +1°C° 0 mm 1 mps 669 mmHg 93%
    Mostrar más